Location: Chanteloup
(48.8560°N, 2.7390°E)
Time: 17:47:15
(UTC+00:00)

Cosmos 1758 Rocket - Pass Details

Date: 04 June 2022
Orbit: 601 x 635 km, 82.5° (Epoch: 27 June)

Event Time Altitude Azimuth Distance (km) Brightness Sun altitude
Rises 01:58:10 0° 145° (SE) 2,862 6.7 -13.0°
Reaches altitude 10° 02:01:01 10° 125° (SE) 1,958 6.1 -12.7°
Maximum altitude 02:03:47 17° 85° (E) 1,554 6.1 -12.5°
Drops below altitude 10° 02:06:34 10° 45° (NE) 1,960 7.5 -12.3°
Sets 02:09:25 0° 25° (NNE) 2,867 9.0 -12.0°
